Temperature
16 16 16 16 16 15 15 15 15 15 15 15 15 15 15 15 15 15 15 15 15 15 15 14 14 14 14 14 14 14 14 13 13 12 12 12 12 12 12 12 12 12 12
16 16 16 16 16 15 15 15 15 15 15 15 15 15 15 15 15 15 15 15 15 14 14 14 14 14 14 14 14 14 13 13 13 13 12 12 12 12 12 12 12 12 12
16 16 16 16 16 15 15 15 15 15 15 15 15 15 15 15 15 15 14 14 14 14 14 14 14 14 14 14 14 14 13 13 13 13 12 12 12 12 12 12 12 12 12
16 16 16 16 16 15 15 15 15 15 15 15 15 15 15 15 15 15 14 14 14 14 14 14 14 14 14 14 14 13 13 13 13 13 13 12 12 12 12 12 11 12 12
17 16 16 16 16 16 16 15 15 15 15 15 15 15 15 15 15 14 14 14 14 14 14 14 14 14 14 14 14 13 13 13 13 13 12 12 12 12 12 11 11 11 11
17 17 16 16 16 16 16 16 15 15 15 15 15 15 15 15 15 15 14 14 14 14 14 14 14 14 14 14 14 14 14 13 13 12 12 12 12 12 12 11 11 11 11
17 17 16 16 16 16 16 16 15 15 15 15 15 15 15 15 15 15 14 14 14 14 14 14 14 14 14 14 14 14 13 13 13 12 12 12 12 12 12 11 11 11 11
17 17 17 16 16 16 16 16 15 15 15 15 15 15 15 15 15 15 15 14 14 14 14 14 14 14 13 13 13 13 13 13 13 12 12 12 12 12 12 11 11 11 11
17 17 17 17 17 16 16 16 16 15 15 15 15 15 15 15 15 15 14 14 14 14 14 14 14 14 14 13 13 13 13 13 13 13 12 12 12 12 12 11 11 10 10
17 17 17 17 17 17 16 16 16 16 15 15 15 15 15 15 15 15 14 14 14 14 14 14 14 14 14 13 13 13 13 12 12 12 12 12 12 12 12 11 11 10 10
18 17 17 17 17 17 16 16 16 16 15 15 15 15 15 15 15 14 14 14 14 14 14 14 14 13 13 13 13 13 13 12 12 12 12 12 11 11 11 11 11 10 10
18 17 17 17 17 17 16 16 16 16 15 15 15 15 15 15 15 14 14 14 14 14 14 13 13 13 13 13 13 13 12 12 12 12 11 11 11 11 10 10 10 10 10
18 17 17 17 17 16 16 16 16 15 15 15 15 15 15 15 14 14 14 14 14 14 13 13 13 13 13 13 12 12 12 12 11 11 11 11 10 10 10 10 10 10 9
17 17 17 17 16 16 16 16 16 15 15 15 15 14 14 14 14 14 14 14 14 13 13 13 13 13 12 12 12 12 12 11 11 11 10 10 10 10 10 9 9 9 8
17 17 17 16 16 16 16 16 16 15 15 15 15 15 14 14 14 14 14 14 14 13 13 13 12 12 12 12 12 11 11 11 11 10 10 10 9 9 9 9 9 8 7
16 16 16 16 16 16 16 15 15 15 15 15 15 15 14 14 14 14 14 14 13 13 13 13 12 12 12 11 11 11 11 10 10 10 9 9 9 9 8 8 8 7 7
16 16 16 15 15 15 15 15 15 15 15 15 14 14 14 14 14 13 13 13 13 12 12 12 12 12 11 11 11 10 10 10 10 9 9 9 8 8 8 8 7 7 6
16 15 15 15 15 15 15 15 15 15 14 14 14 14 14 13 13 13 13 12 12 12 12 11 11 11 11 10 10 10 10 9 9 9 9 8 8 8 7 7 7 6 6
15 15 15 15 15 15 14 14 14 14 14 14 14 13 13 13 13 12 12 12 12 12 11 11 11 10 10 10 10 9 9 9 9 8 8 8 8 7 7 7 6 6 6
15 15 15 14 14 14 14 14 14 13 13 13 13 13 13 13 12 12 12 12 11 11 11 11 10 10 10 9 9 9 9 9 8 8 8 7 7 7 6 6 6 5 5
14 14 14 14 14 14 13 13 13 13 13 13 13 12 12 12 12 12 11 11 11 11 10 10 10 10 9 9 9 9 8 8 8 7 7 7 7 6 6 6 5 5 5
14 14 14 13 13 13 13 13 13 12 12 12 12 12 12 12 11 11 11 11 11 10 10 10 10 9 9 9 9 8 8 8 7 7 7 7 6 6 6 5 5 4 4
13 13 13 13 13 12 12 12 12 12 12 12 11 11 11 11 11 10 10 10 10 10 10 10 9 9 9 9 8 8 8 7 7 7 7 6 6 6 5 5 4 4 3
13 12 12 12 12 12 12 12 11 11 11 11 11 11 11 11 10 10 10 10 10 10 9 9 9 9 8 8 8 8 7 7 7 6 6 6 5 5 4 4 4 3 3
12 12 12 12 12 12 11 11 11 11 11 11 11 10 10 10 10 10 10 10 9 9 9 9 9 8 8 8 8 7 7 7 6 6 6 5 5 4 4 4 3 3 2
12 12 12 11 11 11 11 11 11 11 11 10 10 10 10 10 10 9 9 9 9 9 8 8 8 8 8 7 7 7 7 6 6 5 5 5 4 4 4 3 3 2 2
Wind_Speed
9 8 7 6 6 6 5 5 4 4 5 5 4 4 4 4 4 4 3 3 3 4 3 3 3 3 2 2 1 1 1 1 2 2 2 2 2 3 4 4 5 6 8
9 9 8 7 7 6 6 5 5 4 4 4 4 4 4 4 3 3 3 3 3 3 3 3 3 3 2 2 1 1 1 1 2 3 2 2 2 2 3 3 4 5 6
9 9 9 8 8 7 7 6 5 5 4 5 5 4 4 4 4 4 4 3 3 3 3 3 3 3 2 2 1 1 1 2 1 2 2 2 1 1 1 2 3 3 4
10 10 10 9 8 8 7 6 6 6 5 5 5 4 4 4 4 4 4 4 4 3 3 3 2 2 2 2 2 2 2 2 2 2 2 2 1 0 1 1 1 2 2
11 11 10 9 9 8 7 7 6 6 5 5 4 4 4 3 3 4 4 4 4 4 3 3 3 4 5 3 1 1 2 2 2 2 1 1 1 1 1 1 1 1 1
11 11 10 10 9 9 8 8 7 6 5 5 5 4 4 3 4 1 2 4 4 4 4 3 4 4 4 4 4 4 3 0 1 1 1 1 1 1 1 2 2 2 1
12 11 10 10 10 10 9 8 7 7 6 5 5 4 4 5 7 5 3 2 3 3 3 3 3 2 3 3 5 5 2 2 3 2 1 1 1 1 2 2 2 3 3
12 12 11 10 10 10 10 9 9 8 7 6 5 5 5 5 8 7 6 4 3 3 3 2 3 3 2 3 3 3 2 1 1 2 1 1 1 1 1 2 2 2 2
12 12 12 12 11 11 11 11 9 8 8 7 6 6 6 6 8 8 7 5 4 4 3 3 3 3 3 3 3 3 2 1 2 1 2 2 3 2 1 1 2 3 3
13 12 12 12 12 12 12 11 9 8 8 7 6 6 7 6 8 9 9 5 5 4 3 3 2 3 4 4 4 3 3 2 1 2 2 2 1 1 2 3 3 3 4
11 11 11 11 12 11 10 9 9 8 8 7 7 6 7 6 8 10 9 6 6 5 4 4 4 7 6 5 4 3 2 1 1 1 1 1 0 0 0 1 2 3 4
10 11 11 11 10 9 9 9 9 9 8 8 7 7 6 6 6 8 10 8 5 5 5 4 4 8 6 5 4 2 2 2 2 2 2 1 1 1 1 1 2 2 3
10 10 10 11 10 10 10 10 9 9 8 8 7 7 6 5 5 7 9 9 7 5 3 2 4 7 6 4 4 4 4 3 2 2 2 2 2 2 1 1 1 2 3
10 10 9 10 10 10 8 9 8 8 8 8 8 7 6 6 6 6 6 6 7 6 4 4 6 5 4 2 3 4 3 2 2 2 2 2 1 1 1 1 2 2 3
9 9 9 9 9 8 7 6 7 7 7 7 7 7 6 6 6 7 7 6 6 6 6 5 4 4 4 3 3 2 3 3 3 2 2 2 2 2 1 2 2 3 3
8 8 7 7 7 7 7 5 3 2 4 4 3 4 4 3 7 9 8 6 6 8 7 5 4 4 4 4 3 3 3 3 3 3 3 3 3 2 2 2 2 3 4
8 7 7 7 7 7 7 7 6 4 4 4 4 4 4 6 8 9 9 8 8 9 5 4 4 4 4 4 3 3 3 3 2 3 3 3 3 3 3 3 3 4 4
7 7 6 6 6 6 6 6 6 6 5 3 3 5 5 6 7 8 9 8 5 4 4 4 4 4 3 3 3 3 3 3 3 3 3 3 3 3 4 4 4 4 5
6 5 5 6 6 6 6 5 5 5 5 4 4 4 6 6 6 6 8 5 5 5 4 4 4 3 3 3 3 3 3 3 3 3 3 3 3 4 4 4 4 5 5
5 7 6 6 6 6 6 6 5 5 5 4 4 4 5 5 4 5 5 4 4 4 4 4 3 3 3 3 3 3 3 3 4 4 3 3 4 4 4 5 5 5 5
5 7 8 6 5 6 6 5 5 5 5 4 4 4 6 5 5 5 5 4 4 4 4 3 3 3 4 3 3 4 4 3 3 3 4 4 4 4 4 5 5 6 5
5 6 6 6 5 5 5 5 5 5 5 5 4 5 6 4 4 4 4 3 3 3 3 3 3 3 3 3 3 4 4 4 4 4 4 4 4 4 5 5 5 5 5
6 6 6 6 6 6 6 5 5 5 5 4 4 4 5 4 3 3 3 3 2 2 2 2 2 2 2 3 4 4 4 4 4 4 4 4 4 4 4 5 6 6 6
6 7 7 6 6 6 5 5 5 5 5 4 4 4 4 4 3 3 2 2 2 2 2 2 2 2 3 2 2 3 3 4 4 5 5 5 5 5 5 5 6 7 7
6 6 6 6 6 6 5 5 5 5 4 4 4 3 3 3 3 2 2 2 2 2 2 2 2 2 3 3 3 3 3 3 3 4 5 5 5 5 5 6 6 6 6
6 6 6 6 6 6 5 5 5 5 4 4 3 3 3 3 2 2 2 2 2 2 2 2 2 3 3 3 4 4 3 4 4 5 5 4 4 4 5 5 7 6 6
Wind_Direction
186 185 184 179 182 181 181 175 176 165 159 154 155 150 144 140 136 131 130 129 126 123 126 122 117 110 118 117 115 94 75 82 114 105 95 91 85 58 54 44 43 44 55
188 187 187 180 182 184 183 180 176 166 163 160 156 156 146 144 140 139 139 138 132 128 128 130 130 125 125 121 111 104 88 87 130 124 125 115 88 65 50 41 45 46 46
188 190 188 185 186 188 187 180 176 171 174 171 164 164 157 155 154 155 150 149 141 134 127 126 131 139 144 134 147 123 110 111 120 146 130 107 114 86 56 48 48 39 38
188 192 192 190 190 191 186 182 181 178 181 179 169 166 164 162 164 160 149 148 142 134 128 121 122 129 129 130 139 131 131 135 138 145 144 146 141 126 275 355 33 29 15
190 192 193 192 189 187 181 180 182 179 177 172 170 170 166 168 167 165 156 156 150 140 133 124 104 78 51 51 66 119 141 150 153 156 159 168 178 207 271 302 334 345 3
190 193 190 190 185 185 185 183 182 180 179 174 181 174 168 163 129 128 201 167 161 155 148 142 131 128 120 110 79 55 33 150 169 181 202 220 241 250 290 284 291 303 317
193 193 189 189 185 186 183 183 183 183 179 180 182 176 176 157 147 163 208 182 173 170 167 160 143 140 162 147 142 149 111 25 332 296 260 260 256 264 257 269 295 311 321
194 192 189 188 188 185 183 186 188 186 182 185 185 186 184 173 162 169 179 185 183 184 189 188 175 172 171 168 156 151 141 123 257 256 276 292 317 316 271 284 301 295 291
195 194 191 188 188 188 190 192 190 187 186 188 187 191 193 187 174 179 187 182 188 197 197 201 200 187 132 179 179 177 175 156 107 101 24 24 32 27 324 252 269 275 289
195 195 193 191 191 192 193 193 188 187 189 188 189 196 199 201 178 184 199 192 199 196 192 193 180 196 158 185 198 199 208 214 189 158 163 188 207 194 224 255 277 284 293
192 191 190 191 193 192 190 188 186 186 187 194 197 199 205 208 184 182 195 207 205 201 199 201 188 168 181 196 228 222 226 253 226 234 237 227 222 264 226 261 282 279 284
185 188 188 188 187 185 183 186 187 184 185 195 201 202 207 205 202 188 190 213 233 213 211 209 177 159 174 191 207 188 174 228 237 241 252 263 275 287 307 319 299 285 289
180 184 186 185 184 183 183 184 186 188 192 198 201 204 205 202 191 181 188 199 213 222 218 135 139 157 172 189 190 191 197 219 226 235 249 268 285 295 305 321 301 294 295
180 182 182 183 182 183 184 188 189 191 195 199 200 202 200 196 196 191 192 192 189 201 204 157 149 157 182 177 168 184 206 215 221 232 246 257 266 277 280 289 284 283 284
179 180 180 179 177 178 180 185 191 194 197 198 202 197 194 202 200 183 185 190 190 187 177 174 179 180 186 194 198 196 200 200 206 222 232 241 246 253 271 284 285 280 284
174 175 176 174 173 172 168 161 122 151 142 164 168 182 187 170 144 155 164 160 151 151 162 180 193 200 204 204 205 206 208 217 222 223 230 237 247 258 269 275 278 277 285
171 171 172 172 170 172 173 173 167 141 109 127 153 160 159 142 142 152 156 149 143 149 171 195 201 206 212 211 211 218 221 224 226 228 234 240 247 254 262 268 272 277 282
164 161 163 166 167 170 173 174 173 167 162 162 162 159 157 146 144 148 148 138 141 166 197 203 204 205 208 210 213 218 221 218 220 229 236 242 247 252 257 264 269 278 282
156 158 160 160 160 162 164 164 164 163 162 159 150 143 149 144 132 136 150 166 177 182 193 204 208 209 211 213 215 217 217 218 222 227 235 242 249 254 258 264 269 273 275
149 138 144 150 151 152 153 155 154 155 158 158 157 151 145 148 150 153 172 190 194 195 197 202 207 211 214 218 218 218 220 222 227 233 241 246 251 257 263 266 271 273 274
151 144 142 148 148 147 146 149 151 151 153 155 152 139 145 158 162 165 171 185 196 202 202 203 205 207 212 212 215 218 222 227 230 240 247 251 254 258 263 267 270 272 276
154 150 152 150 145 143 145 150 151 150 151 151 145 135 139 155 160 167 173 180 189 197 200 198 202 206 208 212 215 219 225 233 238 243 247 252 256 260 263 266 270 274 276
153 153 150 148 148 143 146 149 150 151 151 153 149 143 147 161 168 171 173 173 171 175 178 188 198 205 217 221 218 222 232 239 245 248 250 251 255 259 263 266 269 275 276
154 156 153 149 150 152 154 155 154 153 154 153 153 154 154 158 163 167 169 160 158 158 163 173 189 204 210 218 227 232 244 254 253 246 245 252 255 260 263 267 269 272 274
154 153 152 150 151 153 153 153 153 152 153 154 155 155 156 155 157 164 167 160 162 168 178 189 206 222 225 219 224 241 252 248 248 255 247 244 252 258 263 265 268 272 274
151 150 150 148 148 151 154 156 156 153 153 155 157 161 162 163 165 173 181 183 190 200 209 217 237 244 244 237 238 248 243 234 237 247 250 246 248 255 263 264 267 267 272
Height
1555 1557 1559 1560 1561 1562 1564 1565 1566 1567 1568 1568 1569 1569 1570 1570 1570 1570 1571 1571 1572 1572 1572 1572 1572 1573 1573 1573 1573 1573 1573 1574 1574 1573 1572 1571 1570 1569 1567 1565 1564 1562 1560
1553 1555 1557 1559 1560 1562 1563 1564 1565 1567 1567 1568 1569 1569 1570 1570 1571 1571 1571 1571 1572 1572 1573 1573 1573 1573 1573 1573 1573 1573 1573 1573 1574 1573 1572 1572 1571 1570 1568 1566 1565 1563 1561
1551 1554 1556 1558 1559 1561 1562 1563 1565 1566 1567 1568 1568 1569 1569 1570 1570 1571 1571 1572 1572 1572 1573 1573 1573 1573 1573 1573 1573 1573 1573 1573 1573 1573 1572 1571 1571 1570 1569 1568 1566 1564 1563
1548 1551 1554 1556 1558 1559 1561 1562 1564 1565 1566 1567 1568 1568 1569 1569 1570 1571 1571 1572 1572 1572 1573 1573 1573 1573 1574 1574 1573 1573 1573 1573 1573 1573 1572 1572 1571 1570 1569 1568 1567 1565 1564
1546 1549 1551 1554 1556 1558 1560 1561 1562 1564 1565 1566 1567 1567 1568 1569 1570 1571 1571 1572 1572 1572 1573 1573 1573 1573 1573 1573 1573 1573 1573 1573 1573 1573 1572 1572 1571 1570 1569 1568 1567 1566 1564
1543 1546 1549 1551 1554 1556 1558 1559 1561 1563 1564 1565 1565 1566 1567 1568 1569 1570 1571 1572 1572 1573 1573 1573 1573 1573 1573 1573 1573 1573 1573 1573 1573 1572 1572 1572 1571 1570 1569 1568 1567 1566 1564
1540 1543 1546 1548 1551 1553 1555 1557 1559 1561 1562 1563 1564 1565 1566 1567 1568 1569 1570 1571 1572 1573 1573 1573 1573 1573 1573 1573 1572 1572 1572 1572 1572 1572 1571 1571 1570 1569 1568 1567 1566 1565 1564
1537 1540 1543 1545 1548 1551 1553 1555 1557 1559 1561 1562 1563 1564 1565 1566 1567 1569 1570 1570 1571 1572 1572 1573 1573 1573 1572 1572 1572 1572 1571 1571 1571 1570 1570 1569 1568 1568 1567 1566 1565 1563 1562
1534 1536 1539 1542 1545 1548 1550 1553 1555 1557 1559 1560 1561 1563 1564 1565 1566 1567 1568 1569 1570 1571 1571 1572 1572 1572 1572 1571 1572 1571 1571 1570 1569 1569 1568 1567 1567 1566 1565 1564 1563 1562 1561
1530 1533 1536 1539 1541 1544 1547 1550 1552 1554 1556 1558 1559 1561 1562 1564 1565 1566 1566 1568 1569 1569 1570 1570 1570 1571 1570 1570 1570 1570 1570 1569 1569 1568 1567 1566 1565 1564 1563 1562 1561 1560 1559
1527 1530 1532 1535 1538 1541 1544 1546 1549 1551 1553 1555 1557 1558 1560 1561 1563 1564 1564 1566 1567 1567 1568 1568 1569 1569 1569 1569 1569 1569 1568 1568 1567 1566 1566 1565 1563 1562 1561 1560 1558 1557 1556
1523 1526 1529 1532 1535 1537 1540 1543 1545 1548 1550 1552 1554 1556 1557 1558 1560 1561 1562 1563 1564 1565 1566 1566 1566 1567 1567 1567 1567 1566 1566 1566 1565 1564 1564 1563 1562 1560 1559 1558 1556 1555 1553
1520 1522 1525 1528 1531 1534 1536 1539 1542 1544 1546 1548 1550 1552 1553 1555 1556 1557 1558 1560 1561 1562 1563 1563 1564 1564 1564 1564 1564 1564 1563 1563 1562 1562 1561 1560 1559 1558 1556 1555 1553 1552 1550
1516 1519 1522 1525 1527 1530 1533 1535 1537 1540 1542 1544 1546 1548 1549 1551 1552 1553 1555 1556 1557 1558 1559 1560 1560 1561 1561 1561 1561 1560 1560 1559 1559 1559 1558 1557 1556 1555 1553 1552 1550 1549 1547
1513 1516 1519 1521 1524 1526 1529 1531 1533 1535 1538 1540 1542 1544 1545 1547 1548 1550 1551 1552 1553 1555 1555 1556 1557 1557 1557 1557 1557 1557 1557 1556 1555 1555 1554 1553 1553 1551 1550 1548 1547 1545 1544
1510 1513 1515 1518 1520 1523 1525 1527 1530 1532 1534 1536 1538 1540 1542 1543 1545 1546 1547 1549 1550 1551 1552 1552 1552 1553 1553 1553 1553 1553 1553 1552 1552 1551 1550 1550 1549 1548 1547 1545 1544 1542 1541
1507 1510 1512 1515 1517 1519 1522 1524 1526 1528 1530 1532 1534 1536 1538 1539 1541 1543 1544 1545 1546 1547 1547 1548 1548 1549 1550 1550 1550 1549 1549 1549 1548 1548 1547 1546 1545 1544 1543 1542 1540 1539 1537
1505 1507 1510 1512 1514 1516 1519 1521 1523 1525 1527 1529 1531 1533 1534 1536 1538 1539 1541 1542 1542 1542 1543 1544 1545 1545 1546 1546 1546 1546 1545 1545 1544 1544 1543 1542 1541 1540 1539 1538 1536 1535 1533
1503 1505 1508 1510 1512 1514 1517 1519 1521 1523 1524 1526 1528 1529 1531 1533 1534 1536 1537 1538 1538 1539 1540 1541 1542 1542 1543 1543 1543 1542 1542 1541 1541 1540 1539 1538 1537 1536 1535 1533 1532 1531 1529
1501 1503 1506 1508 1510 1512 1514 1516 1518 1520 1522 1524 1525 1527 1528 1530 1531 1532 1533 1534 1535 1536 1537 1537 1538 1539 1539 1539 1539 1538 1538 1537 1537 1536 1535 1534 1533 1532 1530 1529 1528 1526 1525
1499 1501 1504 1506 1508 1510 1512 1514 1516 1518 1520 1521 1523 1524 1526 1527 1528 1529 1530 1531 1532 1533 1533 1534 1535 1535 1535 1535 1535 1534 1534 1533 1532 1532 1531 1529 1528 1527 1526 1525 1524 1522 1520
1497 1500 1502 1504 1506 1508 1510 1512 1514 1516 1518 1519 1521 1522 1524 1525 1526 1527 1528 1528 1529 1530 1531 1531 1531 1531 1531 1531 1531 1530 1530 1529 1528 1527 1526 1525 1524 1523 1522 1520 1519 1517 1515
1496 1498 1500 1502 1505 1506 1509 1511 1512 1514 1516 1517 1519 1520 1521 1522 1523 1524 1525 1525 1526 1527 1527 1527 1527 1527 1527 1527 1526 1526 1525 1524 1524 1523 1522 1521 1520 1518 1517 1516 1514 1512 1511
1494 1496 1498 1500 1503 1505 1507 1508 1510 1512 1513 1515 1516 1517 1518 1519 1520 1521 1522 1522 1523 1523 1523 1523 1523 1523 1523 1522 1522 1521 1520 1520 1519 1518 1517 1516 1515 1514 1512 1511 1509 1508 1506
1493 1495 1497 1498 1501 1503 1504 1506 1508 1509 1511 1512 1513 1515 1515 1516 1517 1518 1518 1519 1519 1519 1519 1519 1519 1519 1518 1518 1517 1516 1516 1515 1515 1514 1513 1512 1510 1509 1507 1506 1504 1503 1501
1492 1493 1495 1497 1498 1500 1502 1504 1505 1507 1508 1509 1511 1512 1513 1513 1514 1515 1515 1515 1515 1515 1515 1515 1514 1514 1514 1513 1512 1512 1511 1510 1509 1509 1508 1507 1505 1504 1502 1501 1499 1498 1496